Location: Recife
(8.0585°S, 34.8848°W)
Time: 09:54:06
(UTC-03:00)

Transit 2A Rocket - Pass Details

Date: 14 April 2026
Orbit: 587 x 895 km, 66.7° (Epoch: 14 May)

Event Time Altitude Azimuth Distance (km) Brightness Sun altitude
Rises 11:44:48 0° 3° (N) 2,825 8.2 71.3°
Reaches altitude 10° 11:47:23 10° 17° (NNE) 1,909 7.4 71.1°
Maximum altitude 11:50:48 24° 71° (ENE) 1,239 6.4 70.8°
Drops below altitude 10° 11:54:14 10° 125° (SE) 1,918 7.0 70.4°
Sets 11:56:50 0° 139° (SE) 2,841 7.8 70.1°
